This is the latest recevied weather packets stored in our database for station/object WX2P-13. If no packets are shown the sender has not sent any weather packets the latest 10 day(s).
| Time | Temp. | Humidity | Pressure | Rain* | Wind** | Luminosity | Snow |
|---|---|---|---|---|---|---|---|
| 1777733858 | 27.78° C | 80% | 1011.4 hPa | 0 mm | - | 403 W/m² | - |
| 1777733251 | 27.22° C | 80% | 1011.3 hPa | 0 mm | - | 110 W/m² | - |
| 1777732644 | 27.22° C | 79% | 1011.3 hPa | 0 mm | - | 106 W/m² | - |
| 1777732342 | 27.22° C | 79% | 1011.3 hPa | 0 mm | - | 279 W/m² | - |
| 1777732039 | 27.22° C | 79% | 1011.4 hPa | 0 mm | - | 216 W/m² | - |
| 1777731736 | 27.22° C | 79% | 1011.3 hPa | 0 mm | - | 105 W/m² | - |
| 1777731433 | 27.22° C | 79% | 1011.1 hPa | 0 mm | - | 269 W/m² | - |
| 1777731131 | 27.22° C | 80% | 1011 hPa | 0 mm | - | 269 W/m² | - |
| 1777730829 | 26.67° C | 80% | 1011.2 hPa | 0 mm | - | 195 W/m² | - |
| 1777730526 | 26.11° C | 82% | 1011.4 hPa | 0 mm | - | 272 W/m² | - |
| 1777730221 | 26.11° C | 82% | 1011.4 hPa | 0 mm | - | 117 W/m² | - |
| 1777729919 | 26.11° C | 82% | 1011.6 hPa | 0 mm | - | 104 W/m² | - |
| 1777729614 | 25.56° C | 82% | 1011.2 hPa | 0 mm | - | 128 W/m² | - |
| 1777729312 | 25.56° C | 84% | 1011.2 hPa | 0 mm | - | 128 W/m² | - |
| 1777729008 | 25.56° C | 85% | 1011.3 hPa | 0 mm | - | 127 W/m² | - |
| 1777728705 | 25° C | 85% | 1011.2 hPa | 0 mm | - | 133 W/m² | - |
| 1777728401 | 25° C | 86% | 1011.1 hPa | 0 mm | - | 131 W/m² | - |
| 1777728099 | 25° C | 85% | 1011.1 hPa | 0 mm | - | 105 W/m² | - |
| 1777727796 | 25° C | 86% | 1011 hPa | 0 mm | - | 98 W/m² | - |
| 1777727493 | 25° C | 85% | 1011.2 hPa | 0 mm | - | 88 W/m² | - |
| 1777727190 | 25° C | 85% | 1011 hPa | 0 mm | - | 81 W/m² | - |
| 1777726584 | 25° C | 85% | 1010.7 hPa | 0 mm | - | 101 W/m² | - |
| 1777726282 | 25.56° C | 85% | 1010.7 hPa | 0 mm | - | 193 W/m² | - |
| 1777725978 | 25° C | 87% | 1010.7 hPa | 0 mm | - | 116 W/m² | - |
| 1777725675 | 23.89° C | 89% | 1010.5 hPa | 0 mm | - | 94 W/m² | - |
* Rain latest hour (hover to see other rain measurements)
** Current wind speed in m/s (hover to see current wind gust speed)